Weather History for K06D - September, 2014

Change the Weather History Date:

Tuesday, September 2, 2014

  Actual Average (KRUG) Record (KRUG)
Temperature  
Mean Temperature 58 °F -  
Max Temperature 71 °F 76 °F 96 °F (1955)
Min Temperature 44 °F 50 °F 32 °F (1952)
Degree Days  
Heating Degree Days 8    
Growing Degree Days 8 (Base 50)    
Moisture  
Dew Point 50 °F    
Average Humidity 79    
Maximum Humidity 100    
Minimum Humidity 46    
Precipitation  
Precipitation 0.01 in - - ()
Sea Level Pressure  
Sea Level Pressure 29.75 in    
Wind  
Wind Speed 10 mph (WSW)    
Max Wind Speed 18 mph    
Max Gust Speed 24 mph    
Visibility 10 miles    
Events Rain    
Averages and records for this station are not official NWS values.
T = Trace of Precipitation, MM = Missing Value Source: NWS Daily Summary

Daily Weather History Graph

Daily Weather History Graph

Search for Another Location

Airport or City:

Trip Planner

Search our weather history database for the weather conditions in past years. The results will help you decide how hot, cold, wet, or windy it might be!

Date:

Astronomy

Sep. 02, 2014 Rise Set
Actual Time 6:56 AM CDT 8:18 PM CDT
Civil Twilight 6:23 AM CDT 8:51 PM CDT
Nautical Twilight 5:44 AM CDT 9:30 PM CDT
Astronomical Twilight 5:01 AM CDT 10:13 PM CDT
Moon 3:18 PM CDT (9/2) No Moon Set
Length of Visible Light 14h 27m
Length of Day
13h 21m
First Quarter, 53% of the Moon is Illuminated
Sep 2
First Quarter
Sep 8
Full
Sep 15
Last Quarter
Sep 24
New
Oct 1
First Quarter

Hourly Weather History & Observations

Time (CDT) Temp. Windchill Dew Point Humidity Pressure Visibility Wind Dir Wind Speed Gust Speed Precip Events Conditions
12:15 AM 51.8 °F - 48.2 °F 88% 29.79 in 10.0 mi West 9.2 mph - N/A   Clear
12:35 AM 51.8 °F - 48.2 °F 88% 29.80 in 10.0 mi WNW 9.2 mph - N/A   Clear
12:55 AM 50.0 °F - 48.2 °F 94% 29.80 in 10.0 mi West 9.2 mph - N/A   Clear
1:15 AM 50.0 °F - 46.4 °F 87% 29.80 in 10.0 mi West 9.2 mph - N/A   Clear
1:35 AM 50.0 °F - 46.4 °F 87% 29.80 in 10.0 mi West 9.2 mph - N/A   Clear
1:55 AM 50.0 °F - 46.4 °F 87% 29.79 in 10.0 mi WNW 9.2 mph - N/A   Clear
2:15 AM 46.4 °F 42.9 °F 46.4 °F 100% 29.79 in 10.0 mi SW 6.9 mph - N/A   Clear
2:35 AM 46.4 °F 42.4 °F 46.4 °F 100% 29.79 in 10.0 mi West 8.1 mph - N/A   Clear
2:55 AM 46.4 °F 40.4 °F 46.4 °F 100% 29.79 in 10.0 mi WSW 13.8 mph - N/A   Clear
3:15 AM 48.2 °F - 48.2 °F 100% 29.79 in 10.0 mi West 4.6 mph - N/A   Clear
3:35 AM 46.4 °F 44.3 °F 46.4 °F 100% 29.79 in 10.0 mi SW 4.6 mph - N/A   Clear
3:55 AM 46.4 °F 44.3 °F 46.4 °F 100% 29.79 in 10.0 mi West 4.6 mph - N/A   Clear
4:15 AM 44.6 °F 43.1 °F 44.6 °F 100% 29.79 in 10.0 mi SSW 3.5 mph - N/A   Clear
4:35 AM 46.4 °F 45.2 °F 46.4 °F 100% 29.79 in 10.0 mi South 3.5 mph - N/A   Clear
4:55 AM 44.6 °F 42.2 °F 44.6 °F 100% 29.79 in 10.0 mi SW 4.6 mph - N/A   Clear
5:15 AM 44.6 °F 41.4 °F 44.6 °F 100% 29.78 in 10.0 mi SW 5.8 mph - N/A   Clear
5:35 AM 48.2 °F - 48.2 °F 100% 29.78 in 10.0 mi SW 6.9 mph - N/A   Mostly Cloudy
5:55 AM 53.6 °F - 48.2 °F 82% 29.79 in 10.0 mi WSW 11.5 mph - N/A   Overcast
6:15 AM 51.8 °F - 48.2 °F 88% 29.79 in 10.0 mi WSW 10.4 mph - N/A   Overcast
6:35 AM 50.0 °F - 50.0 °F 100% 29.79 in 10.0 mi WSW 9.2 mph - N/A   Overcast
6:55 AM 53.6 °F - 50.0 °F 88% 29.79 in 10.0 mi WSW 5.8 mph - 0.01 in Rain Light Rain
7:15 AM 50.0 °F - 50.0 °F 100% 29.78 in 10.0 mi SSW 6.9 mph - N/A   Mostly Cloudy
7:35 AM 50.0 °F - 50.0 °F 100% 29.76 in 10.0 mi SSW 5.8 mph - N/A   Mostly Cloudy
7:55 AM 50.0 °F - 50.0 °F 100% 29.76 in 10.0 mi SW 8.1 mph - N/A   Scattered Clouds
8:15 AM 53.6 °F - 51.8 °F 94% 29.76 in 10.0 mi SW 9.2 mph - N/A   Scattered Clouds
8:35 AM 53.6 °F - 53.6 °F 100% 29.76 in 10.0 mi SSW 4.6 mph - N/A   Clear
8:55 AM 57.2 °F - 51.8 °F 82% 29.76 in 10.0 mi SW 6.9 mph - N/A   Partly Cloudy
9:15 AM 57.2 °F - 53.6 °F 88% 29.76 in 10.0 mi SSW 10.4 mph - N/A   Clear
9:35 AM 59.0 °F - 51.8 °F 77% 29.75 in 10.0 mi SSW 9.2 mph - N/A   Clear
9:55 AM 59.0 °F - 53.6 °F 82% 29.75 in 10.0 mi SW 12.7 mph - N/A   Clear
10:15 AM 60.8 °F - 51.8 °F 72% 29.75 in 10.0 mi SW 13.8 mph 17.3 mph N/A   Partly Cloudy
10:35 AM 62.6 °F - 50.0 °F 63% 29.75 in 10.0 mi SW 16.1 mph - N/A   Partly Cloudy
10:55 AM 64.4 °F - 50.0 °F 59% 29.74 in 10.0 mi SW 13.8 mph - N/A   Clear
11:15 AM 64.4 °F - 51.8 °F 64% 29.73 in 10.0 mi SSW 15.0 mph - N/A   Clear
11:35 AM 66.2 °F - 53.6 °F 64% 29.73 in 10.0 mi SW 15.0 mph 19.6 mph N/A   Clear
11:55 AM 66.2 °F - 53.6 °F 64% 29.72 in 10.0 mi SW 17.3 mph - N/A   Clear
12:15 PM 68.0 °F - 51.8 °F 56% 29.72 in 10.0 mi SW 16.1 mph 23.0 mph N/A   Clear
12:35 PM 68.0 °F - 51.8 °F 56% 29.72 in 10.0 mi SW 18.4 mph 24.2 mph N/A   Clear
12:55 PM 68.0 °F - 51.8 °F 56% 29.71 in 10.0 mi SW 17.3 mph 23.0 mph N/A   Clear
1:15 PM 68.0 °F - 53.6 °F 60% 29.71 in 10.0 mi WSW 18.4 mph 21.9 mph N/A   Clear
1:35 PM 69.8 °F - 53.6 °F 56% 29.71 in 10.0 mi WSW 16.1 mph 24.2 mph N/A   Clear
1:55 PM 69.8 °F - 53.6 °F 56% 29.71 in 10.0 mi SW 16.1 mph 24.2 mph N/A   Clear
2:15 PM 71.6 °F - 53.6 °F 53% 29.71 in 10.0 mi West 15.0 mph 21.9 mph N/A   Clear
2:35 PM 71.6 °F - 53.6 °F 53% 29.71 in 10.0 mi WSW 15.0 mph 21.9 mph N/A   Clear
2:55 PM 71.6 °F - 53.6 °F 53% 29.71 in 10.0 mi West 18.4 mph 23.0 mph N/A   Clear
3:15 PM 71.6 °F - 53.6 °F 53% 29.71 in 10.0 mi West 15.0 mph 21.9 mph N/A   Partly Cloudy
3:35 PM 71.6 °F - 50.0 °F 46% 29.71 in 10.0 mi West 16.1 mph 23.0 mph N/A   Clear
3:55 PM 71.6 °F - 50.0 °F 46% 29.71 in 10.0 mi WSW 17.3 mph 23.0 mph N/A   Clear
4:15 PM 71.6 °F - 51.8 °F 50% 29.71 in 10.0 mi West 13.8 mph 19.6 mph N/A   Clear
4:35 PM 71.6 °F - 50.0 °F 46% 29.71 in 10.0 mi West 15.0 mph - N/A   Clear
4:55 PM 71.6 °F - 50.0 °F 46% 29.71 in 10.0 mi West 12.7 mph 17.3 mph N/A   Clear
5:15 PM 71.6 °F - 50.0 °F 46% 29.71 in 10.0 mi NW 12.7 mph 17.3 mph N/A   Partly Cloudy
5:55 PM 71.6 °F - 50.0 °F 46% 29.71 in 10.0 mi NW 11.5 mph 16.1 mph N/A   Scattered Clouds
6:15 PM 69.8 °F - 48.2 °F 46% 29.72 in 10.0 mi West 12.7 mph 19.6 mph N/A   Scattered Clouds
6:35 PM 68.0 °F - 50.0 °F 52% 29.72 in 10.0 mi West 8.1 mph - N/A   Clear
6:55 PM 68.0 °F - 50.0 °F 52% 29.72 in 10.0 mi West 6.9 mph - N/A   Partly Cloudy
7:15 PM 66.2 °F - 50.0 °F 56% 29.72 in 10.0 mi West 6.9 mph - N/A   Clear
7:35 PM 64.4 °F - 51.8 °F 64% 29.72 in 10.0 mi West 5.8 mph - N/A   Clear
7:55 PM 62.6 °F - 53.6 °F 72% 29.73 in 10.0 mi WNW 6.9 mph - N/A   Clear
8:15 PM 59.0 °F - 53.6 °F 82% 29.74 in 10.0 mi NW 8.1 mph - N/A   Clear
8:35 PM 57.2 °F - 53.6 °F 88% 29.75 in 10.0 mi NW 6.9 mph - N/A   Clear
8:55 PM 55.4 °F - 53.6 °F 94% 29.75 in 10.0 mi NW 6.9 mph - N/A   Clear
9:15 PM 55.4 °F - 53.6 °F 94% 29.76 in 10.0 mi NW 6.9 mph - N/A   Clear
9:35 PM 53.6 °F - 53.6 °F 100% 29.76 in 10.0 mi NW 6.9 mph - N/A   Clear
9:55 PM 51.8 °F - 51.8 °F 100% 29.76 in 10.0 mi NW 8.1 mph - N/A   Clear
10:15 PM 50.0 °F - 50.0 °F 100% 29.77 in 10.0 mi NW 6.9 mph - N/A   Clear
10:35 PM 50.0 °F - 50.0 °F 100% 29.77 in 10.0 mi NW 6.9 mph - N/A   Clear
10:55 PM 50.0 °F - 50.0 °F 100% 29.77 in 10.0 mi WNW 3.5 mph - N/A   Clear
11:15 PM 50.0 °F - 50.0 °F 100% 29.77 in 10.0 mi WNW 4.6 mph - N/A   Clear
11:35 PM 50.0 °F - 50.0 °F 100% 29.77 in 10.0 mi WNW 4.6 mph - N/A   Clear
11:55 PM 50.0 °F - 50.0 °F 100% 29.77 in 10.0 mi NNW 4.6 mph - N/A   Clear